ECMWFFLT1_sfc_thetae_057.txt.gz
Theta_e
284 284 284 286 286 286 286 287 287 286 285 285 285 285 285 285 287 287 287 287 287 286 286 286 286 286 286 286 286 286 286 286 287 287 287 287 287 287 286 286 286 286 286 286 286 287 287 287 287 287 287 286 286 286 286 286 285 285 285 285 285 285
285 284 284 285 286 286 287 288 287 285 285 285 285 285 284 284 285 285 285 285 285 285 285 285 286 286 286 285 284 284 284 285 285 285 285 286 286 286 286 286 286 286 285 286 286 286 286 286 287 287 287 287 287 287 286 286 285 285 285 285 285 285
284 284 283 283 283 283 284 284 284 284 283 283 284 283 283 283 284 285 285 285 284 284 282 282 283 283 285 285 285 284 284 285 285 284 284 284 283 284 284 285 285 285 286 286 286 286 286 286 286 286 286 286 286 286 286 286 286 285 285 285 285 285
283 282 282 283 284 284 283 284 284 283 283 283 283 281 281 283 282 283 283 284 285 284 284 283 283 283 283 283 283 283 283 283 284 284 284 283 283 283 283 283 284 284 285 285 285 285 285 285 286 286 286 286 286 286 287 286 286 285 285 285 284 285
284 284 283 283 283 283 282 282 283 283 282 282 282 282 281 281 282 281 281 281 281 281 281 281 281 281 282 282 282 282 282 282 283 283 282 281 281 282 282 282 283 283 283 283 284 284 284 285 285 285 285 285 285 285 285 286 286 285 285 285 285 285
282 282 281 281 280 280 280 280 280 280 280 280 280 280 280 280 280 280 280 280 279 278 278 279 279 280 279 280 281 281 282 282 282 282 282 281 280 281 281 281 282 282 283 283 283 283 283 283 284 284 285 285 285 285 285 285 285 285 285 285 285 285
280 280 280 280 279 279 279 279 280 280 280 280 280 280 280 280 280 280 280 279 279 279 279 278 278 278 279 279 280 280 281 281 282 282 282 281 280 281 281 281 281 281 282 282 282 282 282 283 283 284 284 284 284 284 284 284 285 285 285 285 285 286
280 279 279 279 279 279 279 279 279 279 279 279 279 280 280 280 279 279 279 278 278 278 278 278 277 278 278 278 279 280 280 281 281 281 281 281 280 280 280 280 281 281 281 281 281 282 282 282 283 283 283 284 284 284 284 284 284 284 284 285 285 284
279 279 278 279 279 279 279 279 279 278 278 278 278 278 279 279 279 279 279 279 278 278 278 277 278 278 278 278 279 279 279 279 280 279 280 280 280 279 279 279 279 280 280 281 281 281 282 282 282 282 283 283 283 283 284 284 283 284 284 284 284 285
278 279 279 279 279 279 279 279 279 280 279 280 279 279 279 281 280 279 279 278 279 278 279 278 278 278 279 279 278 278 279 279 279 279 279 279 279 279 279 279 279 280 280 280 281 281 281 281 281 282 282 282 282 283 283 283 283 283 283 284 284 284
279 279 279 279 279 279 279 279 279 279 278 278 279 279 279 279 280 279 278 278 278 279 279 280 280 281 281 280 280 279 279 279 278 279 279 278 279 279 279 279 279 278 278 279 279 280 281 281 281 282 281 281 282 282 282 282 283 283 283 283 283 284
278 278 279 279 279 278 279 279 279 279 279 280 279 279 279 279 278 278 278 278 278 278 279 279 279 280 280 280 280 280 280 280 280 280 279 279 279 279 279 278 278 278 278 278 278 278 279 280 281 282 285 286 284 282 283 283 283 283 282 282 283 283
278 278 278 278 278 279 279 279 279 279 279 279 278 278 278 277 278 277 277 278 278 278 278 278 279 279 279 279 279 280 280 280 280 280 279 279 279 279 279 279 279 279 279 279 278 278 279 279 280 283 285 286 286 285 283 282 282 282 282 282 282 282
278 278 278 278 278 279 279 279 279 279 279 278 278 277 277 277 277 276 277 277 277 277 278 278 278 278 278 278 278 279 279 279 279 278 278 278 278 279 279 278 278 279 279 279 278 278 278 279 282 284 285 285 286 286 283 282 282 282 281 282 282 282
278 278 278 278 278 279 279 278 278 278 277 277 276 276 276 276 276 276 276 276 276 276 276 277 277 277 277 277 277 277 277 277 277 277 277 277 278 278 277 277 278 277 278 278 277 277 278 278 282 283 284 284 285 285 284 282 282 281 281 281 281 281
278 278 278 278 278 278 278 277 276 276 275 275 275 275 275 275 275 275 275 275 275 275 275 275 275 275 275 275 275 275 274 274 274 275 276 276 276 276 275 276 276 276 276 276 276 277 277 277 280 282 283 283 283 284 284 282 281 281 281 281 281 281
277 277 277 277 277 276 275 275 274 274 274 274 274 274 274 274 274 274 274 274 274 274 273 273 273 273 273 273 272 272 272 272 273 273 273 273 273 273 273 273 273 274 274 274 275 275 275 276 279 280 281 282 283 284 284 281 281 281 281 281 281 281
277 277 277 276 275 274 273 273 273 272 272 273 272 273 273 272 272 272 272 272 272 272 272 272 271 270 270 270 270 269 270 270 270 269 270 270 270 270 270 270 271 271 271 271 272 272 272 273 277 278 279 281 282 283 280 279 279 279 279 279 280 280
276 276 275 273 273 272 272 272 271 271 271 271 271 271 271 271 270 270 271 270 271 271 270 270 268 268 267 268 267 267 266 266 266 266 267 266 266 267 267 267 268 269 269 269 269 270 270 271 274 276 277 279 280 280 277 277 278 278 278 278 279 280
275 274 274 272 271 271 271 271 270 270 269 269 269 269 268 268 268 269 269 269 268 268 268 267 266 266 265 265 264 264 264 264 264 264 265 264 264 264 265 265 265 266 266 267 267 268 268 269 271 275 276 277 278 278 275 276 276 276 277 277 278 279
273 273 272 271 270 270 270 269 268 267 266 267 267 267 267 267 267 267 267 266 266 266 266 265 264 264 263 262 262 262 262 262 262 263 263 263 263 263 263 263 263 263 264 265 266 267 266 266 268 272 273 275 276 274 273 274 274 275 276 276 276 278
272 271 270 269 269 269 268 267 266 265 266 266 266 265 265 266 266 266 265 265 265 264 264 263 263 262 262 261 261 261 261 262 262 261 261 261 261 261 262 262 262 261 262 263 263 264 264 264 265 267 272 274 275 275 273 273 273 273 274 275 276 276
271 270 269 268 268 267 266 265 264 264 264 265 264 263 265 265 265 264 264 264 263 262 262 262 261 261 261 261 261 261 261 261 261 261 260 260 260 260 260 260 260 261 261 262 263 263 264 265 265 266 272 273 274 275 274 271 272 273 274 274 275 275
268 268 267 267 266 266 265 264 262 263 263 263 262 263 264 264 263 263 262 262 261 261 260 260 260 260 260 260 260 259 259 260 260 260 259 259 259 259 259 259 260 260 260 261 262 263 263 265 267 265 269 271 272 273 274 271 270 272 272 272 273 274
267 266 266 266 265 265 265 262 260 261 261 261 262 263 263 263 262 262 261 261 260 260 259 259 259 259 260 259 259 259 258 259 258 258 259 258 258 258 258 258 259 259 259 260 261 262 263 264 264 268 266 270 272 272 273 274 273 274 272 271 270 271
265 265 265 264 264 263 263 260 260 260 260 260 262 262 262 261 261 260 259 259 259 259 259 259 259 259 259 259 259 258 257 257 257 258 258 258 258 258 258 258 258 259 258 259 259 260 262 263 263 266 269 268 271 272 273 273 273 274 270 270 270 271
263 263 262 264 262 262 261 260 259 259 259 261 261 261 260 260 259 258 258 258 258 258 258 258 258 258 258 258 258 257 257 257 257 257 257 258 257 257 257 257 258 258 258 258 258 259 260 261 262 262 265 269 270 271 272 272 273 273 273 269 269 269
261 260 261 261 262 261 261 259 258 257 259 261 261 260 259 258 258 258 258 258 258 258 258 258 258 258 258 258 258 258 258 258 258 257 257 257 257 257 257 257 257 257 257 257 258 259 259 260 261 261 262 265 266 267 269 271 272 272 272 272 270 273
260 260 260 259 260 260 259 257 258 259 260 259 260 260 259 257 257 257 257 257 258 258 258 257 257 258 258 258 258 258 258 258 258 257 257 257 256 256 256 257 257 257 257 258 258 259 260 260 261 261 262 263 263 263 264 265 266 269 271 268 267 269
259 259 258 259 260 258 258 257 258 258 258 258 259 258 257 257 257 257 257 257 257 258 258 257 259 258 258 258 258 258 258 258 257 256 256 256 256 256 256 257 258 258 259 259 260 261 261 262 262 263 263 264 264 264 265 265 266 265 265 266 267 267
257 257 257 258 258 257 256 256 257 257 258 259 258 257 256 257 257 257 257 257 257 257 258 258 258 258 258 258 258 258 258 257 257 257 258 259 260 260 260 260 262 263 263 263 263 263 263 263 264 265 269 268 270 269 268 268 268 268 268 270 272 270
257 256 257 258 258 257 256 256 257 257 258 258 257 256 256 257 257 257 257 257 257 257 258 258 258 258 258 258 257 257 258 261 264 263 261 261 265 268 269 269 264 265 265 265 265 265 264 264 265 271 273 272 272 273 273 273 273 273 272 273 275 273
256 256 255 257 256 256 256 257 257 257 257 258 258 257 256 256 257 257 257 257 257 258 258 258 257 258 258 258 258 257 257 257 259 264 266 267 267 268 269 270 270 270 270 267 265 267 271 272 272 272 272 272 272 273 273 273 273 274 274 274 271 269
255 255 256 257 256 256 256 256 256 256 256 257 256 257 256 256 257 257 257 257 257 258 258 258 258 258 257 258 258 257 257 256 256 257 263 266 267 268 268 269 270 270 270 271 269 267 266 269 271 272 272 272 272 273 273 273 273 274 274 274 274 269
256 256 256 256 255 255 255 255 255 256 256 257 257 257 256 257 257 257 257 257 257 257 258 258 257 257 257 257 257 256 257 256 256 255 256 259 265 267 268 268 269 269 270 270 271 271 270 270 271 272 272 272 272 272 273 274 274 274 274 274 270 268
255 255 255 254 254 254 255 255 256 256 257 257 257 257 256 257 257 257 257 257 257 257 257 257 257 257 257 257 257 256 256 256 256 256 257 257 257 259 263 266 267 268 269 269 270 270 271 271 271 271 272 272 272 273 273 273 270 273 274 272 268 267
254 254 255 255 255 255 255 255 256 256 257 256 256 256 256 257 257 256 257 258 258 257 257 257 257 257 256 257 256 256 257 257 257 258 257 257 257 257 257 258 260 264 268 266 267 269 271 271 271 271 272 272 272 272 273 273 268 266 266 266 266 267
253 253 254 254 254 254 254 255 256 257 256 256 255 256 256 256 256 256 256 257 257 257 257 257 256 257 256 256 257 257 258 258 258 257 257 258 258 258 258 258 259 260 265 268 269 269 269 270 271 271 272 272 272 272 272 266 265 265 264 265 266 266

ECMWFFLT1_sfc_thetae_060.txt.gz
Theta_e
283 284 285 285 286 286 286 287 286 286 286 285 285 285 285 285 285 284 285 285 284 284 282 282 282 282 282 283 283 282 282 283 284 284 284 284 284 284 284 284 284 284 284 284 284 285 285 285 285 285 285 286 285 286 286 286 285 285 285 285 285 286
284 284 284 285 286 286 287 287 286 285 285 285 285 285 285 284 285 285 284 285 285 284 283 282 281 281 281 281 282 282 282 282 282 281 282 283 283 282 282 282 282 283 283 283 284 284 284 284 284 284 285 285 285 285 285 286 286 285 285 286 286 286
284 284 284 285 284 284 284 282 283 284 283 284 283 283 283 283 283 283 283 283 284 283 282 282 281 281 281 280 280 280 280 280 281 281 281 281 281 281 282 282 281 281 281 282 282 282 283 283 283 284 284 284 284 284 284 285 285 285 285 285 285 286
283 283 283 283 283 283 283 282 281 282 282 281 281 281 280 281 281 281 282 281 281 281 281 281 281 280 280 280 280 280 280 281 281 280 281 281 281 281 281 281 282 281 281 281 281 282 282 282 282 283 283 283 283 283 285 284 284 284 284 285 284 285
283 283 282 283 282 283 282 281 281 280 280 279 279 280 280 279 280 279 279 279 279 279 278 278 279 279 279 279 279 279 280 280 280 280 280 281 281 281 280 281 281 281 281 281 281 281 281 282 281 281 282 282 282 283 283 284 283 283 283 283 284 284
283 283 283 283 282 281 281 281 280 279 279 279 279 280 280 279 279 280 280 279 279 278 278 278 277 278 277 278 278 278 278 279 279 279 279 280 280 280 280 280 280 280 280 280 280 280 281 281 281 281 281 281 281 281 282 283 283 283 283 283 283 283
282 283 282 281 281 280 279 279 279 279 279 279 279 280 279 279 279 279 279 279 279 278 278 278 278 278 278 278 278 278 278 278 279 279 279 279 279 279 279 279 279 279 279 280 280 280 280 280 281 281 281 281 281 280 281 281 282 282 283 283 283 284
281 280 280 279 279 280 280 279 279 279 279 279 279 279 279 280 279 278 279 278 279 278 277 277 277 277 277 278 278 278 278 279 278 279 279 278 279 279 279 279 279 279 279 279 279 279 279 280 280 280 280 280 280 280 280 281 281 281 282 282 283 283
280 280 280 279 279 279 279 279 279 278 278 278 278 278 278 278 278 278 278 277 277 277 277 277 277 277 277 277 278 278 278 278 278 278 278 279 278 278 278 278 278 279 279 279 279 279 279 279 280 280 280 280 280 280 280 280 280 280 281 281 282 282
280 280 279 279 278 278 278 278 278 278 278 278 278 278 277 278 278 277 277 278 277 277 277 277 277 277 277 277 277 277 277 277 277 277 277 277 277 278 278 278 278 279 279 279 279 279 279 279 279 279 279 279 279 279 279 279 279 280 280 280 281 281
280 279 278 278 277 278 278 278 279 279 278 278 278 278 277 277 277 276 276 276 276 276 276 277 277 277 277 277 277 278 278 278 277 277 277 276 277 278 277 277 277 277 278 278 278 278 279 279 279 279 279 279 279 279 279 279 280 280 280 280 280 281
277 277 277 277 277 278 278 278 278 278 278 277 277 276 276 276 275 275 276 276 276 276 276 276 276 276 276 277 277 277 277 276 277 276 276 276 276 276 276 276 276 277 276 277 277 277 278 278 279 280 282 282 280 280 280 280 280 280 280 280 280 280
277 277 278 278 278 278 279 278 277 277 276 276 275 275 275 275 275 275 274 275 275 275 275 275 275 275 275 275 275 275 275 275 275 274 274 274 274 274 274 275 274 275 275 275 275 275 276 277 277 280 281 282 283 281 280 279 279 279 279 279 279 279
278 278 278 277 278 277 277 277 276 276 275 274 274 274 274 274 274 274 274 274 274 274 274 274 274 274 274 273 273 273 273 273 272 272 272 272 272 273 273 273 273 273 273 273 273 273 274 274 276 278 279 280 281 281 279 278 278 278 278 279 279 279
278 278 277 277 277 277 276 276 275 274 274 273 273 273 273 273 273 273 273 273 273 273 273 272 272 272 272 272 271 271 270 270 270 270 270 270 271 271 270 271 270 270 270 270 270 270 271 271 274 276 277 278 279 280 279 277 277 277 277 278 278 278
278 278 277 277 277 275 274 274 274 274 273 272 272 272 272 272 272 272 271 271 271 272 271 271 270 270 269 269 269 268 268 268 268 268 269 269 268 268 268 267 267 267 267 268 268 268 268 268 271 274 275 276 277 277 277 275 275 276 276 277 277 278
278 277 276 275 274 273 272 272 272 272 271 271 271 271 270 270 270 270 270 270 270 270 269 269 268 267 267 267 266 266 266 266 266 266 266 266 266 265 265 265 264 265 265 266 266 266 265 265 270 273 274 275 275 276 276 273 274 274 274 275 276 277
277 276 275 274 272 272 271 271 271 270 270 270 270 269 269 269 268 269 268 268 268 268 268 267 266 265 265 265 265 264 264 264 264 264 264 264 264 264 264 264 264 264 263 264 264 263 263 264 270 271 272 273 274 275 271 271 271 271 272 272 274 276
276 275 273 271 271 270 270 270 270 269 268 267 268 267 267 267 266 267 267 267 266 266 265 265 264 264 263 263 263 262 262 262 262 262 263 262 262 262 262 262 262 262 262 262 262 262 262 263 266 270 271 272 273 272 269 269 270 270 270 270 271 272
274 272 271 270 270 270 270 269 267 267 266 266 266 266 266 266 265 266 265 265 264 265 264 264 263 262 262 261 261 261 262 262 262 261 262 261 261 261 261 261 261 261 261 261 261 261 261 262 265 269 270 271 272 272 269 269 269 269 269 270 271 271
272 271 270 269 268 269 268 266 265 265 265 265 265 265 264 264 265 264 263 264 264 264 263 262 262 262 261 261 261 260 260 260 260 261 261 261 260 260 260 260 260 260 260 261 261 263 262 261 264 268 269 270 271 270 268 268 268 268 268 269 269 271
270 269 268 267 268 267 266 265 264 263 264 264 264 263 262 264 264 263 263 263 263 263 262 262 261 260 260 260 260 260 260 260 260 260 260 260 260 259 259 259 259 259 259 260 260 261 261 261 262 264 269 270 271 272 269 268 267 267 267 268 268 268
270 269 267 267 267 265 265 264 263 263 263 263 262 261 263 263 263 262 262 262 262 261 261 260 260 259 259 259 259 260 260 260 260 260 259 259 259 258 258 258 258 258 259 260 260 260 261 261 261 263 268 270 271 271 271 267 267 267 267 267 268 268
267 267 266 266 265 264 263 262 261 262 262 261 261 261 263 262 262 262 260 260 260 260 259 259 259 259 259 259 259 258 258 259 259 259 258 258 258 257 257 258 258 258 258 259 260 260 260 262 264 262 266 269 270 271 272 268 268 268 268 267 268 268
266 266 265 265 263 264 264 260 260 260 260 260 261 262 262 261 261 260 260 259 259 258 258 258 258 258 258 258 258 258 258 258 258 258 258 257 257 257 256 257 257 257 257 258 259 259 260 261 261 266 265 269 270 271 272 272 271 273 270 268 267 267
265 265 263 263 262 262 262 260 259 259 259 260 261 260 260 259 258 258 258 257 258 257 257 257 257 257 257 258 258 257 257 257 257 257 257 257 257 257 256 257 257 257 256 256 257 258 259 260 261 264 267 267 270 271 272 273 273 273 270 269 268 269
263 263 262 263 261 261 259 259 258 258 257 260 260 258 258 258 257 256 256 256 256 256 257 257 257 257 257 257 257 257 257 257 257 256 257 257 257 256 256 256 256 256 256 256 256 257 259 260 260 261 264 268 270 271 272 272 273 273 273 269 269 269
260 259 259 261 261 261 260 259 258 256 258 259 259 258 257 256 255 255 256 256 256 256 256 256 256 256 257 257 257 257 257 257 257 257 257 257 256 256 256 255 256 256 256 257 258 258 259 260 261 261 262 264 266 268 270 271 272 272 273 272 271 273
259 258 259 258 260 259 259 257 257 258 258 257 259 258 256 253 255 255 255 255 256 256 256 256 256 257 257 257 257 257 257 258 257 257 257 256 256 256 256 256 256 257 258 258 259 260 261 262 262 263 263 264 263 264 265 266 267 270 271 269 267 269
259 258 257 258 259 258 258 257 256 256 256 256 257 255 253 254 255 255 255 255 255 256 256 256 258 258 257 257 257 257 257 257 257 257 256 257 257 257 257 258 258 259 259 259 261 262 263 263 264 264 265 265 266 266 267 266 266 265 265 265 266 267
257 257 256 257 258 257 256 255 255 255 256 257 255 254 252 254 255 255 254 255 255 255 257 256 256 257 257 257 257 257 257 257 257 258 258 260 261 260 260 260 261 263 264 264 264 263 263 264 264 265 270 270 272 270 269 268 268 268 268 270 273 270
256 256 256 257 257 256 255 255 255 255 257 255 254 254 253 254 255 254 254 255 255 256 256 256 256 256 257 257 256 257 257 261 264 264 262 261 265 268 269 269 265 266 266 266 266 266 265 265 267 272 274 274 274 274 274 274 274 275 273 274 275 273
256 255 255 256 256 255 254 255 255 255 256 256 256 255 254 254 254 255 255 256 255 257 257 257 256 257 256 257 257 257 257 257 258 264 266 266 266 268 269 270 270 271 271 268 266 268 272 272 273 273 273 274 274 274 274 274 274 275 275 275 271 270
255 255 255 256 256 254 254 254 254 254 254 254 254 254 254 254 254 254 255 256 256 257 257 256 256 256 256 256 257 256 256 256 255 256 262 266 266 267 268 269 269 270 270 270 270 268 267 270 272 273 273 273 273 273 273 274 274 274 275 275 274 269
256 256 256 255 254 253 253 253 254 253 253 254 254 253 253 253 254 254 255 255 256 256 256 256 256 256 256 256 256 255 256 255 255 255 255 258 265 266 267 267 268 268 269 270 270 271 271 271 272 273 273 273 273 273 273 274 274 274 275 274 269 265
255 255 254 253 252 252 252 253 254 253 254 254 255 254 252 253 254 254 254 255 255 256 256 256 256 256 256 256 256 255 255 255 255 255 256 256 256 258 262 264 265 266 268 268 269 270 270 271 271 272 272 273 273 273 273 273 271 273 273 270 265 263
254 253 253 254 253 252 252 253 254 254 254 253 252 251 251 252 254 254 255 257 257 256 256 256 256 256 256 256 255 255 256 256 256 257 256 256 255 256 256 257 259 263 267 265 266 268 270 270 271 271 272 272 273 273 273 272 266 264 264 264 264 263
252 252 252 253 252 252 251 253 254 254 253 252 250 250 251 253 253 254 255 255 256 255 256 256 256 256 256 255 256 256 257 257 256 256 256 257 257 257 257 257 258 259 263 267 267 268 268 269 270 271 271 272 273 272 271 264 262 262 263 264 264 264

ECMWFFLT1_sfc_thetae_063.txt.gz
Theta_e
280 280 282 283 283 284 283 283 284 284 285 285 285 284 284 285 285 285 285 285 285 284 283 283 283 283 282 282 282 281 281 280 281 280 280 280 280 280 280 280 280 280 280 279 280 281 282 282 282 282 282 282 282 282 283 283 283 283 283 284 284 285
281 282 283 284 285 286 286 286 285 284 285 284 284 284 284 284 284 284 283 284 282 282 283 282 282 282 282 282 281 281 280 280 280 280 280 280 280 279 279 279 279 280 280 280 280 280 279 280 280 281 281 281 281 281 282 282 283 282 282 283 283 284
283 283 284 284 284 284 284 284 283 283 282 282 282 282 282 282 282 282 282 281 281 280 280 279 280 280 281 281 280 281 281 281 281 281 280 280 280 280 280 280 280 279 279 279 279 279 279 279 279 279 279 279 279 280 280 281 281 281 281 282 282 283
284 283 283 283 283 282 282 282 281 281 282 280 280 280 280 280 281 281 281 280 280 280 279 279 279 278 278 279 279 280 280 279 280 280 280 279 280 280 280 280 280 280 279 279 279 279 279 279 279 279 279 279 278 279 280 280 280 280 280 281 280 281
284 283 282 282 282 281 281 280 281 280 280 280 280 280 280 280 280 280 280 279 279 279 278 278 278 278 278 279 278 278 279 279 279 279 279 279 279 279 278 278 278 279 279 279 279 279 279 279 278 279 278 278 278 278 278 279 278 279 279 279 280 280
283 282 281 281 282 282 281 280 280 280 280 280 281 280 281 280 279 279 279 279 279 277 278 278 277 278 277 278 278 278 278 278 278 278 278 278 278 278 279 278 278 278 278 278 278 278 278 278 278 278 278 278 278 278 278 278 278 278 278 278 279 279
282 283 283 282 282 281 280 280 280 281 281 280 279 279 279 278 278 278 278 278 278 277 277 277 277 277 277 276 277 277 277 277 277 277 277 277 277 277 277 278 277 278 277 278 277 277 277 277 278 278 278 278 278 278 278 278 278 278 278 278 278 280
281 280 280 280 280 280 280 279 279 278 278 277 278 278 278 278 277 277 277 277 277 277 276 276 276 276 276 276 276 276 276 276 276 276 276 276 276 277 277 277 277 277 276 276 277 277 277 277 277 277 277 277 278 278 278 278 277 277 277 278 278 278
280 280 280 280 280 279 279 278 278 278 277 277 277 276 277 277 277 277 277 276 276 276 276 275 275 276 275 276 276 276 276 276 275 275 275 276 275 275 275 275 275 275 275 275 275 276 276 276 276 276 277 277 277 277 277 277 277 277 278 278 278 278
280 280 280 279 279 277 277 277 277 277 277 277 276 276 276 277 276 276 276 276 275 275 275 275 275 275 275 275 275 275 275 275 275 275 275 274 274 274 274 273 273 274 274 274 274 275 275 275 275 275 276 276 276 276 277 277 277 277 277 278 278 278
280 280 279 279 277 277 277 278 277 277 276 276 276 275 275 275 275 275 275 275 275 275 274 275 275 275 274 274 274 274 274 274 273 273 273 273 272 273 272 273 273 273 273 273 273 273 273 273 274 274 274 274 274 275 275 276 276 276 276 276 277 277
280 280 279 277 278 277 278 278 277 277 276 275 275 274 275 274 274 274 274 274 274 274 274 273 273 273 273 273 272 272 272 272 271 271 271 271 271 271 271 271 271 271 271 271 271 271 271 271 271 273 275 276 275 274 274 274 274 274 274 275 275 275
278 277 277 278 277 278 278 278 277 276 275 274 274 274 274 273 273 272 272 272 273 272 272 272 272 272 271 272 271 271 270 270 269 269 269 269 269 269 269 269 269 269 269 268 268 268 268 268 269 273 275 276 277 274 273 273 273 273 273 273 273 274
277 277 278 278 278 278 278 277 276 274 274 273 273 273 273 272 272 271 271 272 271 272 271 271 271 270 270 269 269 268 267 267 267 267 267 267 267 267 267 267 267 267 266 266 266 266 266 267 269 272 273 274 275 275 273 272 272 272 272 273 273 273
278 278 278 278 278 278 278 277 275 274 273 272 273 272 271 271 271 270 270 271 270 270 270 269 268 268 267 267 266 266 266 265 265 265 265 265 265 266 265 265 265 265 265 265 264 264 265 265 268 270 272 273 274 275 274 272 272 271 271 272 272 272
278 278 278 278 277 277 276 274 274 273 272 272 271 270 270 269 269 269 269 269 269 269 268 267 265 265 265 265 264 264 264 264 263 264 264 264 264 264 264 263 263 264 263 264 263 263 263 263 266 270 272 273 273 274 274 271 271 270 270 270 270 270
277 277 276 276 274 273 272 272 272 272 271 270 270 269 268 268 267 267 269 267 268 267 266 266 265 264 264 264 263 263 262 262 262 263 263 263 263 262 262 262 262 262 262 262 262 262 262 262 268 270 271 272 273 274 273 270 270 269 269 269 269 269
277 277 276 275 273 272 271 271 271 269 269 268 269 267 267 266 266 267 267 266 266 265 266 264 263 263 263 263 262 261 262 261 261 261 262 262 262 262 262 262 261 261 261 261 261 261 261 262 268 269 270 271 272 273 270 269 268 267 268 268 269 269
278 277 275 273 272 271 270 270 268 268 267 266 266 265 265 265 265 266 266 265 264 264 264 264 263 262 261 262 261 260 260 261 261 261 261 260 261 261 260 260 260 260 260 260 260 260 260 261 264 268 270 271 272 271 267 267 267 267 267 267 268 269
275 274 273 271 270 270 269 267 267 266 265 265 265 265 265 264 264 265 264 264 263 263 263 262 261 261 261 260 259 260 260 260 260 260 260 260 260 259 259 260 260 260 260 260 259 260 260 260 264 268 269 270 271 270 267 267 266 266 267 267 268 268
274 272 270 269 268 268 267 265 264 264 264 264 264 264 263 263 264 264 263 263 263 263 261 261 260 260 260 259 260 259 259 259 259 260 260 259 259 259 259 259 259 259 259 259 259 261 261 260 262 267 268 270 270 269 267 267 266 266 266 266 266 268
270 269 269 268 268 266 265 264 264 263 263 263 263 263 262 263 263 263 263 262 262 261 260 259 259 259 259 259 259 259 259 259 259 259 259 259 259 258 259 258 258 258 258 259 259 259 260 260 260 262 268 269 270 271 268 268 266 266 266 266 266 266
271 270 269 268 266 265 264 263 262 262 262 263 262 261 263 263 262 262 262 262 260 259 259 258 258 258 258 258 258 259 259 259 259 259 258 258 258 258 258 257 257 257 258 258 259 259 259 260 260 261 268 269 270 271 271 267 267 267 267 266 267 267
268 267 266 266 265 264 263 262 261 262 262 261 260 261 263 262 262 261 259 259 258 258 257 257 257 257 257 257 257 257 257 258 258 258 257 257 257 257 256 257 257 257 257 258 259 259 259 260 262 261 266 269 270 271 272 269 268 269 268 267 267 268
267 267 265 264 263 263 263 260 259 259 260 260 261 261 261 261 261 260 259 258 257 256 256 256 256 257 257 257 257 256 257 257 257 256 256 256 256 256 256 256 256 256 257 257 258 258 259 259 260 265 264 268 271 272 272 273 271 273 271 269 268 268
267 265 264 263 262 262 263 260 258 259 258 260 262 260 260 259 258 257 256 255 256 256 256 255 256 256 255 256 256 256 256 256 256 256 255 256 256 256 256 256 256 256 256 256 256 257 259 260 260 263 267 267 270 272 273 273 274 274 271 270 270 270
266 264 263 263 261 261 260 259 258 258 257 260 260 258 258 257 256 254 253 254 253 254 255 255 255 255 255 255 255 255 256 256 256 255 255 255 255 256 255 255 256 255 255 256 256 257 258 260 261 261 264 269 270 272 273 273 274 274 275 271 270 270
263 262 262 261 260 261 259 259 258 255 257 259 259 258 256 255 253 253 253 253 254 254 254 254 255 255 255 255 255 255 255 255 256 256 256 255 255 255 255 255 255 255 256 257 258 259 260 261 262 263 264 266 267 268 270 272 273 273 274 273 272 274
262 260 260 260 259 259 258 256 257 257 258 256 258 258 256 253 253 253 253 253 254 254 254 254 254 255 255 254 255 255 255 256 256 255 256 255 255 255 256 256 257 257 258 259 260 261 262 262 263 264 265 266 266 266 267 268 268 271 272 270 269 271
262 260 259 259 260 259 258 257 256 256 256 255 256 254 253 253 253 253 252 253 253 254 254 254 256 256 256 255 255 255 256 256 256 255 255 256 256 257 257 258 259 259 260 260 261 262 263 263 265 265 266 266 267 267 268 269 269 269 268 267 267 267
260 259 258 259 259 257 256 255 255 255 255 257 255 253 252 252 253 253 251 252 253 253 255 255 255 255 255 255 255 255 256 256 256 256 257 259 260 260 260 260 261 262 263 264 264 264 264 265 265 266 270 270 273 271 270 270 270 270 271 272 275 272
259 258 257 258 258 256 255 254 255 254 256 255 253 252 252 252 252 251 252 253 253 254 254 254 254 254 255 255 255 255 256 260 263 263 261 261 265 268 269 269 265 266 266 266 266 267 266 265 267 272 273 273 274 275 275 275 275 275 274 275 276 274
257 256 256 257 256 255 255 255 255 254 254 255 255 253 252 251 252 252 252 253 253 255 255 254 254 255 254 255 255 255 255 255 257 263 265 265 266 267 268 269 270 270 271 268 266 268 271 272 272 272 273 273 274 274 274 275 275 276 276 275 272 269
256 256 256 256 256 255 254 254 253 253 253 253 252 252 251 251 251 252 253 253 253 255 255 254 254 255 255 255 255 255 255 254 254 255 261 264 265 266 267 268 268 269 269 269 268 267 266 269 271 272 272 273 273 273 274 274 274 275 275 274 273 266
258 257 256 256 255 254 254 252 253 252 252 252 251 251 251 250 251 251 252 253 254 254 255 255 254 255 254 254 254 254 254 254 254 254 254 257 263 264 265 265 266 267 267 268 269 269 269 269 270 271 271 272 272 273 273 274 273 272 272 271 266 262
257 256 255 254 253 253 252 252 252 252 252 252 252 252 250 250 252 251 251 252 253 254 254 254 254 254 254 255 255 254 254 254 254 254 255 255 255 256 259 261 263 264 266 266 268 268 269 269 270 270 271 272 272 272 271 271 267 268 269 267 263 262
255 254 254 254 253 252 252 253 253 252 252 251 250 249 248 249 251 251 253 256 256 253 254 254 255 255 254 254 254 254 255 255 255 255 255 254 254 254 254 255 257 261 263 263 264 266 268 268 269 270 271 271 270 270 269 267 260 259 260 261 261 262
254 253 253 254 253 252 250 252 253 253 251 249 248 248 248 249 250 251 253 253 254 254 254 254 254 254 254 254 254 255 256 256 255 254 254 255 255 255 255 255 256 257 261 264 265 265 266 268 269 270 270 268 268 268 266 258 257 257 258 259 259 259

ECMWFFLT1_sfc_thetae_069.txt.gz
Theta_e
281 282 282 282 281 282 282 282 282 282 282 283 284 283 284 284 285 285 285 284 284 284 283 283 283 283 283 282 282 282 282 281 281 281 281 281 281 281 281 280 280 280 280 280 280 280 279 280 279 280 279 280 279 279 279 280 280 279 279 280 280 280
281 281 281 281 281 282 282 282 283 283 283 284 284 284 284 284 284 284 283 283 283 282 282 282 282 282 282 281 281 281 280 280 280 280 280 280 280 280 280 279 279 279 279 279 279 278 278 278 278 278 278 278 278 278 278 279 279 278 278 279 280 280
281 282 282 282 283 283 283 283 283 283 283 283 283 283 283 282 282 283 282 282 281 281 281 281 281 280 280 280 280 280 279 280 280 280 280 280 279 279 279 278 278 278 278 278 278 277 277 277 277 278 277 277 277 277 278 278 278 277 277 278 278 279
282 282 282 282 283 283 282 283 282 282 282 283 283 283 283 282 282 282 282 281 281 280 280 279 280 280 280 279 279 279 279 279 279 279 279 278 278 278 278 277 277 277 277 276 276 276 276 276 276 276 276 276 276 276 277 276 276 276 276 277 276 277
282 282 282 282 282 283 282 282 283 283 283 282 282 282 282 282 282 281 281 281 280 279 279 279 279 279 279 279 278 278 278 278 278 278 277 276 276 276 276 276 276 275 275 275 275 275 275 275 275 275 275 275 275 274 275 275 275 275 275 275 275 276
282 282 282 282 282 282 282 282 282 282 282 282 282 282 282 281 281 281 280 279 279 278 278 278 278 278 278 277 277 277 277 277 276 276 275 275 275 274 275 274 274 274 274 273 274 274 274 274 274 273 274 273 273 273 273 274 274 274 274 274 275 275
281 282 282 282 282 282 282 282 282 282 282 282 283 283 282 281 281 281 280 279 278 278 277 277 277 277 277 276 276 276 276 275 275 275 274 274 273 273 273 273 273 273 273 272 273 273 272 272 272 272 272 272 273 273 272 273 273 273 274 274 274 275
282 282 281 282 282 282 283 283 283 282 282 282 282 281 280 280 280 280 279 278 278 277 277 277 276 276 276 276 275 275 274 274 273 273 273 273 272 272 272 272 272 272 272 272 272 272 271 271 271 271 271 271 271 272 272 273 273 273 273 274 274 274
281 282 282 282 283 283 283 283 282 281 280 280 279 279 279 279 279 278 278 277 277 276 276 276 276 275 275 275 274 274 273 272 272 271 271 271 271 271 270 271 271 271 271 271 271 270 270 270 270 270 270 270 271 272 272 273 273 273 273 273 273 273
281 282 282 282 283 283 282 281 281 280 280 279 279 278 278 278 278 278 277 276 276 276 275 275 275 274 274 274 273 272 271 271 271 270 270 270 269 269 269 269 269 269 270 270 269 269 269 269 269 269 270 270 271 272 272 272 272 272 272 272 273 273
282 282 282 282 282 282 281 280 279 279 279 279 278 278 278 277 277 277 276 276 275 275 275 275 274 274 273 272 271 270 270 270 269 269 269 269 268 268 268 268 268 268 268 268 268 268 268 268 268 268 269 271 272 273 272 272 272 272 272 272 272 273
283 282 282 282 282 282 280 279 279 279 278 277 277 277 276 276 276 276 275 274 274 274 274 273 273 272 271 271 270 269 269 268 268 267 267 267 267 267 267 267 267 267 267 266 267 267 267 267 267 268 271 273 273 273 273 272 272 272 272 272 271 272
283 283 282 281 281 281 280 280 280 279 278 277 276 276 275 275 274 274 274 273 273 273 272 272 271 270 269 269 268 267 267 267 266 266 266 265 266 266 266 266 266 266 266 266 266 265 266 266 266 269 272 273 274 273 272 272 272 272 272 271 271 270
283 282 281 281 281 280 280 280 279 278 277 276 276 275 274 274 274 273 272 272 272 272 271 270 269 268 268 267 266 266 265 265 264 264 264 264 264 265 265 265 265 265 265 265 265 265 265 265 267 270 272 273 274 275 273 273 272 271 271 271 270 270
282 282 282 281 281 281 281 280 278 278 277 276 275 273 273 272 272 271 271 271 270 269 269 268 267 267 266 265 265 264 264 263 263 263 263 263 264 264 264 264 264 264 264 264 264 264 264 264 266 269 271 273 274 275 274 272 272 271 271 270 270 269
282 282 281 282 282 281 280 280 279 278 276 275 273 272 271 271 270 270 270 269 269 268 267 266 266 265 265 264 264 263 263 262 262 263 263 263 263 263 263 263 263 263 263 263 263 263 263 263 265 269 271 273 273 274 274 272 271 271 270 269 269 268
281 281 280 280 280 279 279 278 277 274 273 272 272 271 270 270 269 269 269 268 267 267 266 266 265 264 264 263 263 262 262 262 262 262 263 262 262 262 262 262 261 261 262 262 262 262 262 262 267 270 271 272 273 273 273 271 270 269 268 268 268 268
280 280 280 280 279 278 278 277 274 273 272 271 271 269 269 268 268 268 267 266 266 266 266 264 264 263 263 263 262 261 261 262 262 261 262 261 262 262 262 262 261 261 260 261 261 261 261 262 266 269 270 271 272 273 270 269 268 268 268 268 268 268
280 279 278 278 278 277 276 274 273 272 270 269 268 268 268 267 267 267 267 266 265 265 265 265 263 262 262 262 261 260 260 261 261 261 261 260 261 261 260 260 260 260 260 260 260 260 260 261 264 268 270 271 272 271 268 268 268 267 267 267 268 268
278 278 278 276 276 276 274 272 272 270 269 268 267 267 267 267 267 267 266 265 264 264 264 264 262 262 261 260 259 260 261 260 260 260 260 260 259 259 259 260 259 259 259 259 259 259 259 260 263 267 269 270 271 270 268 267 267 267 267 267 268 269
277 276 275 275 274 272 271 271 270 270 269 268 267 267 267 267 267 266 265 265 264 264 263 262 262 262 260 260 260 259 259 259 259 260 259 259 259 259 259 259 258 258 259 259 259 261 261 260 262 265 267 269 270 269 268 268 267 267 267 267 267 269
273 273 273 273 274 271 270 270 270 270 269 267 267 266 267 267 266 266 265 264 263 263 262 261 260 260 259 260 259 259 259 259 258 258 259 258 258 258 258 258 258 257 258 259 259 259 260 260 260 261 267 269 270 271 269 268 267 266 266 267 267 267
275 275 274 275 272 269 269 269 270 269 268 267 266 267 267 266 265 264 264 263 262 261 260 260 259 258 258 259 258 259 258 258 259 258 257 257 257 257 257 257 257 257 257 258 259 259 259 259 260 261 267 269 270 271 271 268 268 268 267 267 268 268
273 272 271 270 269 268 268 269 270 269 267 266 267 267 265 264 263 263 262 262 261 260 258 257 257 257 256 256 256 256 256 257 257 257 256 257 256 255 255 256 256 257 257 258 259 259 259 260 262 261 265 268 270 271 272 270 269 270 269 269 269 270
273 273 272 269 268 268 268 269 269 267 266 267 268 265 264 263 262 262 261 260 259 258 256 256 255 256 255 254 254 254 255 255 254 254 254 254 254 255 255 255 256 256 256 257 258 259 259 259 260 264 264 268 270 272 272 273 272 274 272 270 269 270
274 272 269 267 267 267 268 268 269 266 266 267 265 263 262 262 261 260 259 258 257 256 255 254 254 254 253 254 254 253 253 253 253 254 254 254 255 255 255 256 256 256 256 256 257 258 260 260 261 263 267 267 270 272 273 273 274 274 271 271 271 271
273 271 267 266 265 266 266 267 269 265 266 266 262 263 261 260 258 258 256 256 254 254 253 253 253 252 252 252 253 253 254 254 253 254 253 253 254 254 255 255 254 255 255 256 256 258 260 262 264 265 266 269 270 272 272 273 274 274 275 272 271 272
268 268 267 265 264 265 264 265 267 266 267 263 262 261 260 258 257 256 256 254 253 253 252 252 252 251 252 252 253 253 253 253 254 254 254 253 254 254 254 254 255 255 255 256 258 260 262 263 264 265 266 268 269 269 271 272 273 273 274 274 272 274
268 267 266 265 264 264 263 263 264 265 263 261 261 260 258 256 257 256 255 254 254 252 251 252 252 253 252 251 252 252 253 254 253 253 254 254 254 254 254 255 255 256 256 257 260 261 263 264 264 265 266 267 267 268 269 270 271 273 273 272 271 273
270 268 267 267 265 263 263 262 262 260 260 260 260 258 257 256 256 256 255 253 253 253 252 252 255 255 254 253 252 253 253 253 253 253 254 254 255 254 255 255 256 257 258 259 261 262 262 263 265 266 265 266 267 269 270 271 271 271 271 271 271 271
269 269 267 268 266 263 262 261 260 258 259 260 258 257 257 256 256 255 252 252 250 252 254 253 253 253 253 252 252 253 254 254 254 255 255 256 257 257 257 257 258 259 260 260 260 261 263 264 264 265 269 269 272 270 270 270 271 271 270 270 273 270
270 269 268 268 265 263 262 261 260 258 259 258 257 256 257 256 255 254 253 252 252 252 252 253 252 251 253 252 252 252 253 257 261 260 259 259 263 266 268 267 264 264 265 266 267 267 264 264 265 270 272 272 272 274 274 273 273 272 270 271 271 266
268 268 267 267 263 262 261 261 259 258 258 257 256 256 256 255 255 254 254 253 252 253 253 252 251 252 251 251 252 251 253 253 255 261 264 265 265 266 267 268 269 269 269 267 265 266 269 270 270 271 271 272 273 273 272 272 272 271 270 270 265 260
266 266 267 266 263 262 261 260 259 258 257 257 256 256 255 255 256 255 254 253 253 255 254 253 253 253 252 252 253 251 252 252 252 254 259 262 263 265 266 266 267 267 267 268 267 266 266 268 270 270 271 272 272 272 271 271 270 269 269 268 266 258
268 268 267 265 262 261 260 260 258 257 257 256 255 255 254 254 255 254 253 253 253 254 255 254 253 253 253 251 251 251 251 252 252 252 253 256 260 262 263 264 265 265 266 267 267 268 268 268 269 270 271 271 271 271 270 270 268 267 267 266 260 257
267 266 265 263 261 261 259 259 257 256 256 255 255 255 255 254 254 254 253 253 253 253 253 253 253 253 253 253 253 251 252 252 252 252 252 253 253 255 257 260 262 264 265 265 266 267 267 268 269 269 270 270 270 269 269 268 262 265 265 263 258 257
265 263 262 261 260 259 258 259 256 255 255 254 254 254 253 253 253 252 254 255 254 253 253 253 255 254 252 252 252 252 254 253 253 254 254 253 252 252 252 253 255 259 263 262 263 265 267 267 268 269 269 269 268 268 268 264 257 256 256 257 255 256
263 262 260 259 259 259 258 258 255 255 254 253 253 253 252 252 253 253 253 254 255 254 254 254 253 254 253 252 252 252 252 255 253 253 252 253 253 252 252 252 253 254 258 262 263 264 265 266 267 268 268 267 267 266 264 256 255 255 255 255 256 256

ECMWFFLT1_sfc_thetae_072.txt.gz
Theta_e
287 287 287 287 288 288 288 288 288 289 289 289 289 288 289 289 289 289 290 290 290 289 289 288 288 288 288 287 287 287 286 286 286 285 285 285 284 284 284 284 283 283 283 283 283 283 283 283 282 282 282 283 282 283 283 283 282 282 282 283 283 283
287 287 287 287 287 287 288 288 288 288 289 289 289 289 289 289 289 289 289 289 289 288 288 288 288 287 287 287 287 286 285 285 285 284 284 283 283 283 283 283 282 282 282 282 282 281 282 281 281 281 281 281 281 281 281 281 281 281 281 282 282 282
287 288 288 287 287 288 288 288 288 288 288 288 289 288 288 288 289 289 289 288 288 287 287 286 286 286 286 286 285 284 284 283 283 283 283 283 282 282 282 281 281 281 281 281 281 280 280 280 280 280 280 280 280 280 280 280 280 279 280 280 280 281
288 288 288 287 287 287 286 288 288 288 288 288 289 288 288 288 288 288 287 287 287 286 286 285 285 285 285 284 283 283 283 283 282 282 282 281 281 281 280 280 280 280 280 280 279 279 279 279 279 279 279 279 278 278 279 279 278 278 278 279 279 279
288 288 287 286 286 287 286 287 287 288 288 288 288 288 288 288 288 288 287 286 286 285 285 284 284 284 283 283 283 282 282 281 281 281 280 280 280 280 279 279 279 279 279 278 278 278 278 278 278 278 277 277 277 277 277 278 277 277 277 277 278 278
288 287 286 286 286 286 286 287 287 288 288 288 288 287 288 288 288 287 286 285 285 284 283 283 283 283 283 282 282 281 281 280 280 280 279 279 279 278 278 278 278 278 278 277 277 277 277 276 276 276 277 276 276 276 276 276 277 277 277 277 277 277
287 287 287 286 286 286 287 287 287 287 287 288 287 287 288 288 287 285 284 283 282 283 283 282 283 282 282 281 281 280 279 279 279 278 278 278 278 277 277 277 277 277 277 276 276 276 276 275 275 275 275 275 275 275 275 276 276 276 277 277 277 277
288 287 286 286 286 286 287 287 287 287 287 287 287 287 287 286 285 284 283 282 282 282 282 282 282 281 281 280 279 279 278 278 277 277 277 276 276 276 276 276 276 276 275 275 275 275 274 275 274 274 274 274 275 275 275 276 276 276 276 277 276 276
287 287 287 286 286 287 287 287 286 286 286 286 287 287 286 285 284 284 284 284 283 283 282 282 281 280 280 279 279 278 277 276 276 276 275 275 275 275 275 275 274 274 274 274 274 273 273 273 273 274 274 274 274 275 276 276 276 276 276 276 276 276
287 287 287 286 286 287 286 286 286 286 286 286 286 286 286 285 284 284 284 284 283 283 282 281 280 280 279 278 277 276 276 275 275 275 275 274 274 274 273 273 273 273 273 273 273 273 273 273 273 273 273 274 275 275 276 276 276 276 276 276 276 276
287 287 287 287 286 285 285 285 286 286 286 286 285 285 285 285 285 285 284 284 283 282 281 279 279 279 278 277 276 275 275 274 274 274 274 273 273 273 273 272 272 272 272 272 272 272 272 272 272 272 272 273 274 275 275 275 275 275 275 275 275 275
288 287 287 286 285 285 285 285 285 286 285 285 285 285 285 285 285 284 284 283 282 281 280 279 278 277 276 276 275 274 274 273 273 273 272 272 272 272 272 272 272 272 271 271 271 271 271 271 272 271 271 274 274 275 274 274 274 275 274 274 274 274
288 287 287 286 285 285 285 285 285 286 285 285 283 283 284 285 284 284 283 282 280 279 278 278 277 276 275 275 274 273 273 272 272 272 271 271 271 271 270 271 271 271 271 270 270 270 270 271 271 271 273 274 275 274 274 274 274 274 274 273 273 273
288 287 286 286 286 286 285 285 285 284 284 284 284 284 284 284 283 282 282 280 279 278 277 276 276 275 274 273 272 271 271 270 270 270 270 270 270 270 270 270 270 270 270 270 270 270 270 270 270 272 273 274 274 275 274 274 274 273 273 273 273 273
288 288 287 286 286 285 285 286 285 284 285 284 284 283 282 282 282 281 280 278 277 276 276 276 275 274 272 272 271 270 269 269 269 269 268 268 269 269 269 269 269 269 269 269 268 268 269 269 270 271 272 273 274 275 275 273 273 273 272 273 273 272
290 289 289 288 287 287 286 286 285 285 285 284 283 281 281 281 280 280 278 277 276 275 275 274 273 272 271 270 269 269 269 268 268 268 268 268 268 268 268 268 267 268 268 268 267 267 268 268 269 270 272 273 273 274 274 273 273 272 272 272 272 271
290 290 289 289 288 287 286 285 286 285 283 282 281 281 280 280 279 278 277 276 275 274 274 273 272 271 270 269 268 268 268 268 268 267 268 268 268 267 267 267 267 266 266 266 266 266 266 267 269 270 271 272 273 274 274 272 272 271 271 271 271 271
289 289 288 289 287 286 286 286 285 284 282 281 280 280 280 279 278 277 276 275 274 273 273 272 271 270 269 269 268 267 268 267 267 267 267 267 267 267 266 266 266 265 265 265 265 265 265 266 268 269 270 271 272 273 271 271 270 270 270 270 270 270
288 288 288 287 287 286 285 285 283 282 280 279 279 278 278 277 277 276 275 275 274 273 273 272 271 270 269 269 268 267 267 267 266 266 267 266 266 266 266 265 265 265 264 263 263 263 264 265 266 268 269 270 272 271 270 270 269 269 269 269 270 270
286 286 286 286 285 285 285 282 282 280 278 278 277 277 276 276 277 276 275 275 274 273 272 272 270 269 268 268 267 267 267 267 267 266 265 265 265 265 265 264 264 264 264 263 263 263 263 263 265 268 269 270 271 271 269 269 269 268 268 269 270 270
285 285 285 285 283 284 282 281 280 279 278 277 276 276 276 276 277 276 275 274 273 272 271 270 269 269 267 267 267 265 265 265 265 265 264 264 264 264 264 264 263 263 263 263 263 263 263 263 264 266 268 269 270 270 270 269 269 268 268 268 268 269
282 282 283 283 283 282 280 279 279 278 278 276 276 275 276 276 277 276 275 274 272 271 269 268 267 267 266 266 265 264 264 265 264 263 264 264 264 264 264 263 263 261 262 262 262 262 263 263 263 264 267 269 270 271 270 270 269 268 268 268 268 268
283 282 283 283 282 279 279 278 278 278 277 276 275 275 276 277 277 275 273 272 270 269 268 267 266 265 265 265 264 264 263 264 264 263 262 262 263 262 262 261 261 261 261 262 263 263 263 263 263 263 267 269 270 271 271 270 269 269 269 269 269 269
282 282 281 282 279 277 277 278 278 278 277 275 275 276 278 276 274 273 271 270 269 267 266 265 265 264 263 262 262 262 262 262 262 262 261 262 262 260 259 260 260 261 261 262 262 262 263 263 264 264 266 269 270 271 272 270 270 271 271 270 270 270
281 281 281 279 277 276 276 277 277 277 276 274 276 277 276 273 272 271 270 269 267 265 264 263 262 262 261 260 260 260 261 261 260 259 259 259 259 259 259 259 260 260 261 262 263 263 263 263 263 266 266 269 270 271 272 273 272 274 272 270 269 270
281 280 280 277 275 275 276 276 277 276 275 275 278 274 272 271 270 269 268 266 265 263 262 261 260 260 260 260 260 260 260 260 259 259 260 260 260 261 261 262 262 261 261 261 262 263 264 264 265 267 268 269 271 272 273 273 273 274 272 272 271 271
280 280 278 276 274 274 274 276 277 275 274 277 275 271 270 269 267 266 265 264 263 262 261 260 260 260 259 259 260 260 260 259 258 260 261 259 260 261 261 261 261 261 261 261 261 263 264 265 266 267 268 270 270 271 272 273 274 274 275 272 272 272
280 279 277 275 273 273 273 274 276 275 276 276 272 271 268 266 265 265 264 263 262 261 260 259 258 258 258 258 259 260 261 261 260 261 261 261 261 260 260 260 261 260 261 261 262 263 264 265 266 267 268 269 269 270 271 273 274 274 274 274 273 274
277 277 276 275 273 272 272 272 274 276 276 271 270 268 266 265 265 264 263 261 261 260 259 260 261 260 258 258 259 260 260 260 260 260 260 261 261 260 260 260 260 261 261 262 263 263 265 265 266 267 268 268 268 268 269 270 271 273 273 272 271 271
277 277 276 276 275 272 271 271 271 273 271 269 268 266 265 264 264 264 262 261 261 261 260 261 260 260 261 260 260 261 260 260 260 260 260 261 261 261 261 261 261 261 262 262 263 264 264 265 266 267 267 267 268 270 271 271 272 271 271 269 270 268
276 277 277 277 277 273 270 270 270 271 268 268 266 264 264 264 263 263 262 261 261 261 260 261 260 261 262 261 259 260 261 261 261 260 260 260 260 261 261 261 261 262 262 263 263 263 263 265 266 266 269 270 272 271 271 271 271 271 270 270 271 266
277 277 277 278 277 273 271 270 270 268 267 266 264 264 264 264 263 262 261 260 261 261 260 260 260 260 260 260 261 259 259 260 262 261 260 260 263 265 267 266 262 263 263 263 265 266 265 265 266 270 272 272 272 273 274 273 273 272 270 271 270 266
275 276 276 277 275 272 271 270 269 266 266 265 264 264 265 263 263 263 262 259 261 261 261 261 260 260 260 260 260 260 260 260 261 265 266 266 266 267 268 269 270 270 270 268 266 267 270 270 271 271 271 272 272 273 273 272 272 271 270 270 266 263
274 274 274 276 275 273 270 269 268 265 264 264 263 264 264 263 264 264 263 261 261 260 260 261 260 259 259 259 259 259 259 260 261 262 264 265 265 266 267 267 267 268 268 268 268 267 266 268 269 270 271 271 272 272 272 271 270 270 269 268 266 262
275 275 276 276 274 272 270 268 267 265 263 262 262 262 263 262 264 264 263 261 260 260 260 260 260 260 259 258 258 258 258 259 259 261 262 262 263 263 265 265 266 266 266 267 267 268 268 268 269 270 270 271 271 271 270 270 269 268 268 266 262 261
276 275 275 274 272 271 269 267 267 264 262 261 261 261 262 262 263 263 262 261 260 261 260 260 260 260 260 259 259 259 258 259 259 259 259 260 260 260 261 263 263 264 265 265 266 267 267 268 268 269 270 271 270 270 269 268 265 266 265 264 260 260
274 274 272 271 270 268 267 267 266 263 262 260 260 260 260 260 261 261 259 258 259 261 261 261 261 260 259 259 258 258 258 258 258 258 257 258 258 258 258 259 259 261 263 263 264 265 266 267 268 269 269 269 268 268 267 265 262 261 261 261 260 260
271 271 269 267 267 266 266 266 264 261 260 259 259 259 259 259 259 259 260 259 259 260 261 261 260 260 259 259 258 258 259 259 258 258 258 258 257 257 256 257 258 258 260 263 264 264 265 266 267 268 268 268 267 266 264 260 260 259 260 259 260 260

ECMWFFLT1_sfc_thetae_075.txt.gz
Theta_e
290 290 289 290 290 291 291 292 292 292 292 292 291 291 291 291 291 291 292 292 292 291 291 291 290 290 290 290 290 290 289 288 287 287 286 286 286 285 285 285 284 284 284 284 283 283 283 283 283 283 282 283 283 283 283 283 282 282 282 283 283 283
290 290 289 289 289 290 290 291 292 291 291 291 291 291 291 291 291 291 291 291 291 291 290 290 290 290 289 289 289 288 287 287 286 286 285 285 284 284 284 283 283 283 283 283 282 282 282 282 282 282 281 282 282 282 282 282 281 281 281 282 282 283
290 290 290 290 290 290 290 290 290 291 291 291 291 290 290 290 291 291 291 291 290 290 289 289 289 288 289 288 288 287 286 286 286 285 284 284 283 283 283 282 282 282 282 282 281 281 281 281 281 281 281 281 280 280 281 281 280 280 280 280 280 281
290 290 289 289 289 289 289 290 290 290 290 290 290 290 290 290 290 290 290 290 290 289 288 288 288 288 287 287 286 285 285 284 284 284 283 283 282 282 282 281 281 281 281 281 280 280 280 280 280 280 279 279 279 279 280 280 279 279 279 279 279 280
290 289 289 288 288 288 288 289 289 289 290 290 290 289 290 290 290 290 290 289 289 288 287 287 286 286 286 285 285 284 284 283 283 283 282 282 281 281 281 281 280 280 280 280 280 279 279 279 278 279 278 278 278 277 278 279 278 278 277 278 278 278
290 289 288 288 287 287 288 288 289 289 289 289 289 289 289 290 290 289 289 288 288 287 286 286 286 285 285 284 283 283 282 282 282 282 281 281 281 280 280 280 279 279 279 279 279 278 278 278 278 277 277 277 277 277 277 277 277 277 277 277 277 278
289 288 288 288 287 287 287 288 288 289 289 289 289 289 290 289 289 288 288 287 286 285 285 284 285 284 283 283 283 282 282 281 281 281 280 280 280 280 279 279 279 278 278 278 277 277 277 277 277 276 276 276 276 276 276 276 277 277 277 277 277 278
289 289 288 288 287 287 287 288 288 288 289 289 289 289 289 289 289 288 287 286 285 284 284 284 284 283 283 282 282 281 281 280 280 279 279 279 279 279 279 278 278 277 277 277 276 276 276 276 276 275 275 275 276 276 276 276 277 277 277 277 277 277
289 289 289 288 288 287 287 288 288 288 288 288 289 289 289 288 288 287 286 285 284 283 283 283 283 283 282 282 281 280 280 279 279 278 278 278 278 277 277 277 276 277 276 276 275 275 275 275 275 275 275 275 275 275 276 276 277 277 277 277 277 277
290 289 289 288 288 288 288 288 288 288 288 288 288 288 288 287 286 285 284 284 283 283 283 283 283 283 282 281 280 279 278 278 277 277 277 277 276 276 276 276 275 276 275 275 275 275 274 274 274 274 274 274 275 275 276 276 276 276 276 276 276 276
290 290 289 289 288 287 287 287 287 288 288 288 288 288 287 287 285 285 285 284 283 283 284 283 282 282 281 279 279 278 277 277 277 276 276 276 276 276 275 275 275 275 275 274 274 274 274 273 274 274 273 273 274 275 275 275 275 275 275 275 275 276
291 291 290 289 288 287 287 287 287 287 287 287 287 287 287 286 285 284 284 283 283 284 283 282 281 280 279 278 278 277 277 276 276 275 275 275 275 275 275 274 274 274 274 273 273 273 273 273 274 273 273 275 275 275 275 275 275 275 275 274 274 274
292 291 290 289 288 287 287 287 287 287 287 287 286 286 286 285 284 284 284 283 284 282 281 280 280 279 278 278 277 277 276 276 275 275 275 274 274 274 273 273 273 274 273 273 273 272 273 273 273 273 275 276 276 275 274 274 274 274 274 274 274 273
292 291 290 289 289 288 287 287 287 286 286 286 286 286 286 285 284 284 284 284 282 281 280 280 279 279 278 277 276 276 275 275 274 274 274 273 273 273 273 273 273 272 272 272 272 272 272 272 273 274 275 275 276 276 275 274 274 274 274 274 273 273
292 291 290 290 289 288 288 287 286 286 286 286 286 285 285 284 284 284 284 283 282 281 280 279 278 278 277 276 275 274 274 273 273 273 272 272 273 272 272 273 272 272 272 271 271 271 271 271 273 274 274 275 275 276 275 274 273 273 273 273 273 273
293 292 291 290 290 289 289 288 287 287 287 286 285 285 284 284 284 284 284 282 281 280 279 278 278 277 276 275 274 273 272 272 272 272 272 272 271 272 272 271 270 271 270 270 270 270 270 271 272 273 274 274 275 275 275 273 273 273 273 272 272 272
292 292 291 290 290 290 289 288 287 287 286 286 285 285 284 284 284 283 282 281 280 279 278 278 277 276 275 274 273 272 272 271 272 271 271 271 271 271 270 270 269 269 269 268 269 268 268 269 272 273 273 274 274 274 274 273 272 272 272 272 272 271
292 291 291 291 290 289 289 288 287 286 286 286 285 284 284 283 283 283 281 280 279 278 278 277 276 276 274 273 272 271 271 271 271 270 271 271 271 270 270 270 269 268 267 267 267 267 267 268 271 272 272 273 273 274 272 271 271 270 270 270 271 271
292 292 292 291 290 289 288 288 287 286 285 284 284 283 283 283 283 282 281 280 279 278 277 277 276 275 273 272 271 271 271 271 270 270 270 269 270 269 269 268 268 267 267 266 266 265 266 267 269 270 271 272 273 272 270 270 270 270 270 270 270 270
290 291 290 289 289 289 288 287 286 286 284 284 283 283 283 283 282 282 281 280 279 278 277 277 276 274 273 272 271 270 271 271 270 269 269 269 268 268 268 267 267 266 266 265 265 265 265 265 267 270 271 272 272 272 270 270 269 269 269 269 270 270
288 288 288 288 288 288 287 286 286 285 283 283 283 283 282 282 282 282 281 280 279 278 277 276 275 274 273 271 271 270 270 269 269 269 268 267 268 267 267 266 266 266 265 265 265 266 265 265 266 268 270 270 271 271 270 270 269 269 269 269 269 270
286 286 286 286 287 287 286 285 285 284 283 282 282 282 281 282 282 283 281 281 279 277 276 275 274 273 272 271 270 269 269 269 268 267 267 266 267 267 267 266 265 264 264 265 264 264 265 264 265 266 269 270 271 272 270 270 269 268 269 269 269 269
285 285 286 286 287 285 285 284 284 283 283 282 281 281 282 282 283 282 281 279 277 276 274 273 273 272 271 270 269 268 267 268 267 266 266 265 266 266 265 264 263 263 263 264 265 265 264 265 264 265 268 270 271 272 272 270 269 269 269 269 269 270
285 285 285 286 285 283 283 283 282 282 282 281 280 281 282 282 282 281 280 278 276 274 272 271 270 270 268 267 267 266 266 266 266 265 264 265 265 263 262 262 263 263 263 264 265 264 264 265 266 265 267 269 271 272 272 271 270 271 270 270 270 270
284 284 285 285 283 282 282 282 281 281 281 280 281 282 282 282 281 280 278 276 274 271 270 269 267 266 265 264 265 265 265 263 262 262 263 262 262 261 261 261 262 262 263 263 264 265 265 265 265 267 266 269 271 272 273 273 273 274 272 271 270 270
284 284 284 282 281 281 281 281 280 280 280 280 282 282 281 280 279 277 276 273 272 270 268 266 265 264 263 263 264 264 263 263 262 262 262 262 263 263 263 264 264 263 263 263 264 264 266 265 266 267 269 269 271 272 273 273 274 274 272 272 272 272
284 284 282 281 279 280 280 280 280 279 279 281 282 281 279 278 275 274 273 272 270 268 266 264 264 263 263 263 263 263 263 261 261 262 263 262 263 264 264 265 264 263 263 264 263 264 265 265 266 267 269 270 270 271 272 273 274 274 275 272 272 273
282 283 281 279 278 278 278 279 280 279 280 281 281 280 277 275 273 272 272 270 268 266 264 263 262 262 262 262 263 263 264 262 262 264 264 263 264 264 263 264 264 263 263 263 264 264 264 265 266 267 268 269 270 270 271 272 273 273 274 274 273 274
281 281 281 280 278 277 277 277 279 280 281 280 280 278 275 273 272 271 271 269 267 264 263 263 263 262 261 261 262 263 264 264 264 264 264 264 264 264 264 264 263 263 263 263 264 265 265 266 266 267 267 268 269 269 269 270 271 273 273 272 271 271
280 280 280 280 280 277 277 277 277 278 279 277 277 274 272 271 271 271 270 268 266 264 263 264 263 262 261 261 262 263 263 263 264 264 264 264 265 264 264 263 263 263 263 264 264 264 265 265 266 267 267 268 268 268 270 271 271 272 271 270 270 270
279 279 280 280 281 279 276 276 276 277 277 275 273 271 271 271 269 270 268 266 265 264 263 265 263 264 263 262 262 264 264 263 263 264 264 264 265 266 265 264 264 264 264 264 264 264 264 265 265 267 270 269 271 271 270 270 271 271 271 271 272 270
279 279 279 280 281 280 277 276 275 275 276 274 271 270 270 270 269 268 267 265 265 265 263 264 264 264 264 263 262 263 263 264 266 265 264 263 265 267 268 268 265 265 265 265 265 266 265 265 267 270 271 272 272 273 273 274 274 274 272 272 272 270
278 278 278 279 279 279 278 277 275 274 274 272 270 269 270 269 268 268 267 265 265 265 264 264 264 264 264 264 264 263 262 262 264 268 268 267 266 267 269 270 270 270 269 267 266 268 271 271 272 272 272 272 272 272 273 273 273 272 272 271 269 265
277 277 277 279 279 279 278 276 275 274 272 271 269 269 269 268 269 268 268 266 266 265 264 265 264 264 263 263 263 263 264 264 263 264 268 270 269 269 270 270 270 271 271 272 271 269 268 269 270 271 271 271 272 272 273 272 272 271 271 270 269 263
278 278 279 278 278 277 277 275 274 272 270 269 268 267 268 268 268 269 268 266 266 265 264 265 264 263 263 263 262 262 263 264 264 264 264 266 269 270 270 269 269 270 270 270 271 271 270 269 270 270 271 271 271 272 272 271 271 270 270 269 264 261
279 279 278 276 276 276 275 274 271 269 269 267 267 267 267 267 267 268 269 267 266 265 264 264 264 263 263 263 263 262 262 263 264 265 265 263 262 263 265 267 268 268 269 269 269 269 269 269 270 270 270 270 271 271 271 270 268 269 268 266 261 260
277 276 275 274 273 273 272 273 272 268 267 266 266 266 266 267 267 267 266 264 264 265 264 264 265 264 263 263 262 262 262 262 263 263 262 263 262 262 261 261 263 266 267 266 266 267 268 269 269 269 269 270 271 270 269 268 264 262 262 262 261 261
275 274 273 271 271 271 271 272 269 267 266 265 264 264 265 265 265 266 267 264 263 264 265 265 264 264 263 262 262 262 262 262 261 261 261 261 261 261 260 260 260 260 264 266 266 267 267 268 268 268 269 270 269 267 267 261 261 260 260 260 260 260